EW9053 Weather Reports


Display with metric or nautical units.
time (UTC)temp
F
wind
direction
speed
MPH
gust
MPH
rain 1hr
in
rain 24hr
in
rain mn
in
humidity
%
barometer
mb
20210615180440 87 302 0.0 2.0 0.00 0.00 0.00 36 1008.7
20210615175937 87 41 0.0 2.0 0.00 0.00 0.00 40 1008.7
20210615175436 87 318 0.0 2.0 0.00 0.00 0.00 43 1008.6
20210615174934 86 288 0.0 1.0 0.00 0.00 0.00 43 1008.7
20210615174434 86 235 0.0 1.0 0.00 0.00 0.00 45 1008.6
20210615173935 86 241 0.0 2.0 0.00 0.00 0.00 46 1008.6
20210615173433 85 327 0.0 2.0 0.00 0.00 0.00 43 1008.7
20210615172933 85 332 0.0 2.0 0.00 0.00 0.00 44 1008.8
20210615172433 85 43 0.0 1.0 0.00 0.00 0.00 46 1008.8
20210615171933 85 157 0.0 1.0 0.00 0.00 0.00 47 1008.9
20210615171431 85 292 0.0 0.0 0.00 0.00 0.00 51 1008.7
20210615170933 85 111 0.0 0.0 0.00 0.00 0.00 47 1008.8
20210615170432 85 179 0.0 3.0 0.00 0.00 0.00 47 1008.8
20210615165932 85 227 0.0 3.0 0.00 0.00 0.00 49 1008.7
20210615165431 85 318 0.0 2.0 0.00 0.00 0.00 51 1008.8
20210615164934 84 296 0.0 0.0 0.00 0.00 0.00 52 1008.7
20210615164437 84 142 0.0 0.0 0.00 0.00 0.00 54 1008.7
20210615163930 84 48 0.0 0.0 0.00 0.00 0.00 52 1008.7
20210615163430 84 305 0.0 1.0 0.00 0.00 0.00 54 1008.7
20210615162930 83 303 0.0 2.0 0.00 0.00 0.00 54 1008.7
20210615162430 83 332 0.0 2.0 0.00 0.00 0.00 55 1008.8
20210615161932 83 250 0.0 2.0 0.00 0.00 0.00 54 1008.8
20210615161431 82 309 0.0 3.0 0.00 0.00 0.00 54 1008.8
20210615160931 83 306 0.0 3.0 0.00 0.00 0.00 58 1008.8
20210615160432 82 17 0.0 1.0 0.00 0.00 0.00 60 1008.8
20210615155930 82 191 0.0 1.0 0.00 0.00 0.00 61 1008.8
20210615155430 82 191 0.0 1.0 0.00 0.00 0.00 60 1008.9
20210615154930 82 191 0.0 1.0 0.00 0.00 0.00 60 1009.0
20210615154431 81 193 0.0 1.0 0.00 0.00 0.00 59 1008.9
20210615153931 80 185 0.0 1.0 0.00 0.00 0.00 62 1008.9
20210615153431 80 169 0.0 1.0 0.00 0.00 0.00 63 1008.8
20210615152930 80 171 0.0 1.0 0.00 0.00 0.00 62 1009.0
20210615152430 79 171 0.0 2.0 0.00 0.00 0.00 62 1008.9
20210615151931 79 266 0.0 2.0 0.00 0.00 0.00 67 1008.8
20210615151430 79 262 0.0 1.0 0.00 0.00 0.00 68 1008.8
20210615150932 78 262 0.0 1.0 0.00 0.00 0.00 69 1008.8
20210615150431 78 105 0.0 1.0 0.00 0.00 0.00 68 1008.7
20210615145931 78 88 0.0 0.0 0.00 0.00 0.00 73 1008.8
20210615145430 78 88 0.0 0.0 0.00 0.00 0.00 72 1008.7
20210615144930 78 88 0.0 0.0 0.00 0.00 0.00 71 1008.7
20210615144430 78 88 0.0 0.0 0.00 0.00 0.00 70 1008.7
20210615143932 78 88 0.0 2.0 0.00 0.00 0.00 69 1008.7
20210615143431 78 88 0.0 2.0 0.00 0.00 0.00 67 1008.6
20210615142930 78 291 0.0 1.0 0.00 0.00 0.00 68 1008.7
20210615142432 78 94 0.0 2.0 0.00 0.00 0.00 67 1008.6
20210615141930 78 90 0.0 2.0 0.00 0.00 0.00 69 1008.6
20210615141430 78 192 0.0 3.0 0.00 0.00 0.00 70 1008.5
20210615140930 78 142 0.0 3.0 0.00 0.00 0.00 71 1008.5
20210615140429 78 11 0.0 1.0 0.00 0.00 0.00 71 1008.5
20210615135931 78 313 0.0 2.0 0.00 0.00 0.00 73 1008.6
20210615135431 78 327 0.0 2.0 0.00 0.00 0.00 73 1008.6
20210615134930 78 275 0.0 2.0 0.00 0.00 0.00 76 1008.5
20210615134432 78 88 0.0 0.0 0.00 0.00 0.00 80 1008.3
20210615133930 78 88 0.0 1.0 0.00 0.00 0.00 80 1008.3
20210615133428 77 87 0.0 1.0 0.00 0.00 0.00 79 1008.3
20210615132929 77 155 0.0 1.0 0.00 0.00 0.00 81 1008.3
20210615132429 76 153 0.0 1.0 0.00 0.00 0.00 82 1008.3
20210615131922 76 333 0.0 0.0 0.00 0.00 0.00 83 1008.2
20210615131415 76 333 0.0 0.0 0.00 0.00 0.00 84 1008.2
20210615130909 76 333 0.0 0.0 0.00 0.00 0.00 84 1008.3
20210615130404 76 333 0.0 0.0 0.00 0.00 0.00 84 1008.2
20210615125904 75 332 0.0 0.0 0.00 0.00 0.00 85 1008.2
20210615125405 75 332 0.0 2.0 0.00 0.00 0.00 85 1007.9
20210615124902 75 332 0.0 2.0 0.00 0.00 0.00 85 1007.9
20210615124402 74 241 0.0 0.0 0.00 0.00 0.00 88 1007.8
20210615123901 74 241 0.0 0.0 0.00 0.00 0.00 88 1008.0
20210615123402 74 241 0.0 0.0 0.00 0.00 0.00 89 1007.9
20210615122901 73 241 0.0 0.0 0.00 0.00 0.00 90 1007.9
20210615122402 73 241 0.0 0.0 0.00 0.00 0.00 91 1007.9
20210615121901 72 241 0.0 0.0 0.00 0.00 0.00 92 1007.9
20210615121403 72 241 0.0 0.0 0.00 0.00 0.00 93 1007.8
20210615120902 72 241 0.0 0.0 0.00 0.00 0.00 93 1007.7
20210615120402 71 241 0.0 0.0 0.00 0.00 0.00 93 1007.7
20210615115901 71 241 0.0 0.0 0.00 0.00 0.00 93 1007.7
20210615115403 71 241 0.0 0.0 0.00 0.00 0.00 93 1007.7
20210615114901 71 241 0.0 0.0 0.00 0.00 0.00 93 1007.8
20210615114403 70 241 0.0 0.0 0.00 0.00 0.00 94 1007.8
20210615113900 70 241 0.0 0.0 0.00 0.00 0.00 94 1007.8
20210615113401 70 241 0.0 0.0 0.00 0.00 0.00 93 1007.8
20210615112901 70 241 0.0 0.0 0.00 0.00 0.00 94 1007.8
20210615112404 70 241 0.0 0.0 0.00 0.00 0.00 94 1007.9
20210615111903 69 241 0.0 0.0 0.00 0.00 0.00 94 1007.8
20210615111404 69 241 0.0 0.0 0.00 0.00 0.00 94 1007.7
20210615110901 69 241 0.0 0.0 0.00 0.00 0.00 93 1007.7
20210615110402 69 241 0.0 0.0 0.00 0.00 0.00 93 1007.7
20210615105900 69 241 0.0 0.0 0.00 0.00 0.00 93 1007.6
20210615105402 69 241 0.0 0.0 0.00 0.00 0.00 93 1007.5
20210615104901 69 241 0.0 0.0 0.00 0.00 0.00 93 1007.6
20210615104404 69 241 0.0 0.0 0.00 0.00 0.00 93 1007.5
20210615103903 69 241 0.0 0.0 0.00 0.00 0.00 93 1007.4
20210615103401 69 241 0.0 0.0 0.00 0.00 0.00 94 1007.4
20210615102900 69 241 0.0 0.0 0.00 0.00 0.00 93 1007.4
20210615102405 69 241 0.0 0.0 0.00 0.00 0.00 93 1007.4
20210615101859 69 241 0.0 0.0 0.00 0.00 0.00 93 1007.3
20210615101353 69 241 0.0 0.0 0.00 0.00 0.00 93 1007.3
20210615100847 69 241 0.0 0.0 0.00 0.00 0.00 93 1007.3
20210615100347 69 241 0.0 0.0 0.00 0.00 0.00 93 1007.3
20210615095844 69 241 0.0 0.0 0.00 0.00 0.00 93 1007.2
20210615095344 69 241 0.0 0.0 0.00 0.00 0.00 93 1007.3
20210615094844 69 241 0.0 0.0 0.00 0.00 0.00 93 1007.3
20210615094346 69 241 0.0 0.0 0.00 0.00 0.00 93 1007.3
20210615093846 69 241 0.0 0.0 0.00 0.00 0.00 93 1007.3
20210615092840 69 241 0.0 0.0 0.00 0.00 0.00 93 1007.3
20210615092338 69 241 0.0 0.0 0.00 0.00 0.00 93 1007.3
20210615091838 69 241 0.0 0.0 0.00 0.00 0.00 93 1007.3
20210615091336 69 241 0.0 0.0 0.00 0.00 0.00 93 1007.3
20210615090837 69 241 0.0 0.0 0.00 0.00 0.00 92 1007.3
20210615090335 69 241 0.0 0.0 0.00 0.00 0.00 92 1007.2
20210615085836 69 241 0.0 0.0 0.00 0.00 0.00 92 1007.3
20210615085335 69 241 0.0 0.0 0.00 0.00 0.00 92 1007.2
20210615084832 69 241 0.0 0.0 0.00 0.00 0.00 92 1007.2
20210615084330 69 241 0.0 0.0 0.00 0.00 0.00 92 1007.2
20210615083830 69 241 0.0 0.0 0.00 0.00 0.00 92 1007.2
20210615083331 69 241 0.0 0.0 0.00 0.00 0.00 92 1007.3
20210615082830 69 241 0.0 0.0 0.00 0.00 0.00 92 1007.3
20210615082330 69 241 0.0 0.0 0.00 0.00 0.00 92 1007.3
20210615081830 70 241 0.0 0.0 0.00 0.00 0.00 92 1007.3
20210615081330 70 241 0.0 0.0 0.00 0.00 0.00 91 1007.4
20210615080830 70 241 0.0 0.0 0.00 0.00 0.00 91 1007.4
20210615080331 70 241 0.0 0.0 0.00 0.00 0.00 91 1007.4
20210615075829 70 241 0.0 0.0 0.00 0.00 0.00 91 1007.4
20210615075329 70 241 0.0 0.0 0.00 0.00 0.00 91 1007.3
20210615074829 70 241 0.0 0.0 0.00 0.00 0.00 91 1007.3
20210615074330 70 241 0.0 0.0 0.00 0.00 0.00 91 1007.4
20210615073829 70 241 0.0 0.0 0.00 0.00 0.00 91 1007.4
20210615073328 70 241 0.0 0.0 0.00 0.00 0.00 91 1007.4
20210615072831 70 241 0.0 0.0 0.00 0.00 0.00 90 1007.3
20210615072330 70 241 0.0 0.0 0.00 0.00 0.00 90 1007.4
20210615071829 70 241 0.0 0.0 0.00 0.00 0.00 90 1007.4
20210615071330 70 241 0.0 0.0 0.00 0.00 0.00 90 1007.4
20210615070831 71 241 0.0 0.0 0.00 0.00 0.00 90 1007.4
20210615070330 71 241 0.0 0.0 0.00 0.00 0.00 90 1007.3
20210615065830 71 241 0.0 0.0 0.00 0.00 0.00 89 1007.4
20210615065330 71 241 0.0 0.0 0.00 0.00 0.00 89 1007.4
20210615064829 71 241 0.0 0.0 0.00 0.00 0.00 89 1007.4
20210615064328 71 241 0.0 0.0 0.00 0.00 0.00 89 1007.4
20210615063829 71 241 0.0 0.0 0.00 0.00 0.00 88 1007.5
20210615063329 71 241 0.0 0.0 0.00 0.00 0.00 88 1007.6
20210615062830 71 241 0.0 0.0 0.00 0.00 0.00 88 1007.6
20210615062331 72 241 0.0 0.0 0.00 0.00 0.00 88 1007.6
20210615061833 72 241 0.0 0.0 0.00 0.00 0.00 87 1007.6
20210615061329 72 241 0.0 0.0 0.00 0.00 0.00 87 1007.6
20210615060829 72 241 0.0 0.0 0.00 0.00 0.00 87 1007.5
20210615060328 72 241 0.0 0.0 0.00 0.00 0.00 87 1007.7
20210615055830 72 241 0.0 0.0 0.00 0.00 0.00 86 1007.7
20210615055329 72 241 0.0 1.0 0.00 0.00 0.00 86 1007.8
20210615054830 73 241 0.0 1.0 0.00 0.00 0.00 86 1007.9
20210615054330 73 241 0.0 1.0 0.00 0.00 0.00 86 1007.9
20210615053831 73 241 0.0 1.0 0.00 0.00 0.00 86 1008.0
20210615053330 73 207 0.0 0.0 0.00 0.00 0.00 86 1008.0
20210615052830 73 207 0.0 0.0 0.00 0.00 0.00 86 1007.9
20210615052328 73 207 0.0 0.0 0.00 0.00 0.00 86 1007.9
20210615051829 73 207 0.0 0.0 0.00 0.00 0.00 86 1008.0
20210615051329 73 207 0.0 0.0 0.00 0.00 0.00 86 1008.2
20210615050828 73 207 0.0 0.0 0.00 0.00 0.00 85 1008.2
20210615050327 73 207 0.0 1.0 0.00 0.00 0.00 86 1008.3
20210615045825 73 207 0.0 1.0 0.00 0.00 0.00 86 1008.2
20210615045326 73 207 0.0 0.0 0.00 0.00 0.00 86 1008.3
20210615044826 73 207 0.0 0.0 0.00 0.00 0.00 86 1008.4
20210615044324 73 207 0.0 0.0 0.00 0.00 0.00 86 1008.4
20210615043823 73 203 0.0 0.0 0.00 0.00 0.00 86 1008.4
20210615043320 74 203 0.0 0.0 0.00 0.00 0.00 86 1008.5
20210615042821 74 203 0.0 0.0 0.00 0.00 0.00 86 1008.4
20210615042320 74 203 0.0 0.0 0.00 0.00 0.00 86 1008.5
20210615041820 74 203 0.0 0.0 0.00 0.00 0.00 86 1008.4
20210615041322 74 203 0.0 0.0 0.00 0.00 0.00 86 1008.3
20210615040818 74 203 0.0 0.0 0.00 0.00 0.00 86 1008.3
20210615040317 74 203 0.0 0.0 0.00 0.00 0.00 86 1008.2
20210615035816 74 203 0.0 0.0 0.00 0.00 0.00 86 1008.2
20210615035316 74 203 0.0 0.0 0.00 0.00 0.00 85 1008.3
20210615034815 74 203 0.0 0.0 0.00 0.00 0.00 85 1008.4
20210615034317 74 203 0.0 0.0 0.00 0.00 0.00 85 1008.4
20210615033815 74 203 0.0 0.0 0.00 0.00 0.00 84 1008.4
20210615033310 74 203 0.0 0.0 0.00 0.00 0.00 84 1008.4
20210615032810 75 203 0.0 0.0 0.00 0.00 0.00 84 1008.5
20210615032310 75 203 0.0 0.0 0.00 0.00 0.00 84 1008.5
20210615031809 75 203 0.0 1.0 0.00 0.00 0.00 84 1008.5
20210615031308 75 203 0.0 1.0 0.00 0.00 0.00 84 1008.7
20210615030805 75 203 0.0 1.0 0.00 0.00 0.00 84 1008.8
20210615030303 75 203 0.0 1.0 0.00 0.00 0.00 84 1008.9
20210615025803 75 261 0.0 1.0 0.00 0.00 0.00 84 1008.7
20210615025300 75 261 0.0 0.0 0.00 0.00 0.00 84 1008.8
20210615024754 75 261 0.0 1.0 0.00 0.00 0.00 83 1008.8
20210615024248 75 262 0.0 1.0 0.00 0.00 0.00 83 1008.8
20210615023742 75 244 0.0 0.0 0.00 0.00 0.00 82 1008.8
20210615023243 75 244 0.0 0.0 0.00 0.00 0.00 82 1008.8
20210615022742 75 244 0.0 0.0 0.00 0.00 0.00 82 1008.6
20210615022239 75 243 0.0 0.0 0.00 0.00 0.00 81 1008.4
20210615021737 76 242 0.0 0.0 0.00 0.00 0.00 80 1008.3
20210615021238 76 240 0.0 0.0 0.00 0.00 0.00 80 1008.3
20210615020737 76 240 0.0 1.0 0.00 0.00 0.00 79 1008.0
20210615020236 76 241 0.0 1.0 0.00 0.00 0.00 78 1007.9
20210615015732 76 268 0.0 0.0 0.00 0.00 0.00 78 1008.0
20210615015231 76 268 0.0 0.0 0.00 0.00 0.00 77 1007.9
20210615014729 76 268 0.0 2.0 0.00 0.00 0.00 77 1007.9
20210615014230 76 268 0.0 2.0 0.00 0.00 0.00 77 1007.8
20210615013732 76 56 0.0 0.0 0.00 0.00 0.00 76 1008.0
20210615013229 76 57 0.0 1.0 0.00 0.00 0.00 76 1008.0
20210615012729 77 57 0.0 1.0 0.00 0.00 0.00 76 1008.0
20210615012229 77 57 0.0 0.0 0.00 0.00 0.00 76 1007.9
20210615011729 77 57 0.0 1.0 0.00 0.00 0.00 77 1008.2
20210615011231 77 57 0.0 1.0 0.00 0.00 0.00 77 1008.2
20210615010731 77 107 0.0 0.0 0.00 0.00 0.00 77 1008.2
20210615010229 77 69 0.0 0.0 0.00 0.00 0.00 77 1007.8
20210615005730 78 69 0.0 0.0 0.00 0.00 0.00 77 1007.7
20210615005228 78 69 0.0 1.0 0.00 0.00 0.00 76 1007.7
20210615004730 78 69 0.0 1.0 0.00 0.00 0.00 76 1007.7
20210615004229 78 69 0.0 0.0 0.00 0.00 0.00 77 1007.5
20210615003729 78 69 0.0 0.0 0.00 0.00 0.00 77 1007.4
20210615003228 78 69 0.0 0.0 0.00 0.00 0.00 77 1007.5
20210615002729 78 69 0.0 0.0 0.00 0.00 0.00 76 1007.4
20210615002229 78 69 0.0 0.0 0.00 0.00 0.00 76 1007.3
20210615001733 79 69 0.0 0.0 0.00 0.00 0.00 76 1007.4
20210615001236 79 69 0.0 0.0 0.00 0.00 0.00 75 1007.3
20210615000733 79 69 0.0 0.0 0.00 0.00 0.00 75 1007.4
20210615000232 79 69 0.0 0.0 0.00 0.00 0.00 76 1007.4
20210614235733 80 69 0.0 0.0 0.00 0.00 0.00 75 1007.4
20210614235231 80 336 0.0 0.0 0.00 0.00 0.00 74 1007.6
20210614234730 80 233 0.0 0.0 0.00 0.00 0.00 75 1007.5
20210614234231 80 245 0.0 2.0 0.00 0.00 0.00 75 1007.4
20210614233729 80 246 0.0 2.0 0.00 0.00 0.00 75 1007.4
20210614233229 80 271 0.0 1.0 0.00 0.00 0.00 75 1007.6
20210614232730 80 267 0.0 1.0 0.00 0.00 0.00 75 1007.7
20210614232237 80 248 0.0 0.0 0.00 0.00 0.00 76 1007.6
20210614231729 80 248 0.0 1.0 0.00 0.00 0.00 75 1007.5
20210614231231 81 267 0.0 1.0 0.00 0.00 0.00 75 1007.7
20210614230729 81 254 0.0 3.0 0.00 0.00 0.00 74 1007.9
20210614230231 81 249 0.0 3.0 0.00 0.00 0.00 73 1008.2
20210614225729 82 273 0.0 1.0 0.00 0.00 0.00 72 1008.0
20210614225229 82 229 0.0 0.0 0.00 0.00 0.00 72 1007.5
20210614224729 83 240 0.0 0.0 0.00 0.00 0.00 71 1007.1
20210614224231 83 241 0.0 2.0 0.00 0.00 0.00 71 1006.8
20210614223730 83 240 0.0 3.0 0.00 0.00 0.00 69 1006.8
20210614223230 84 264 0.0 3.0 0.00 0.00 0.00 70 1007.0
20210614222730 84 256 0.0 3.0 0.00 0.00 0.00 73 1007.1
20210614222229 84 264 0.0 0.0 0.00 0.00 0.00 77 1007.1
20210614221732 84 264 0.0 0.0 0.00 0.00 0.00 77 1007.3
20210614221229 84 264 0.0 0.0 0.00 0.00 0.00 77 1007.2
20210614220729 84 264 0.0 0.0 0.00 0.00 0.00 75 1007.2
20210614220229 84 264 0.0 0.0 0.00 0.00 0.00 76 1007.3
20210614215731 84 264 0.0 0.0 0.00 0.00 0.00 75 1007.3
20210614215229 84 264 0.0 0.0 0.00 0.00 0.00 75 1007.4
20210614214730 84 264 0.0 0.0 0.00 0.00 0.00 75 1007.5
20210614214229 84 264 0.0 0.0 0.00 0.00 0.00 75 1007.5
20210614213730 84 264 0.0 0.0 0.00 0.00 0.00 74 1007.4
20210614213228 85 264 0.0 0.0 0.00 0.00 0.00 74 1007.2
20210614212731 85 264 0.0 0.0 0.00 0.00 0.00 74 1007.0
20210614212228 85 264 0.0 0.0 0.00 0.00 0.00 71 1007.1
20210614211729 85 264 0.0 0.0 0.00 0.00 0.00 71 1007.2
20210614211230 86 264 0.0 0.0 0.00 0.00 0.00 71 1007.3
20210614210730 86 264 0.0 0.0 0.00 0.00 0.00 70 1007.3
20210614210231 86 264 0.0 0.0 0.00 0.00 0.00 68 1007.3
20210614205729 87 264 0.0 0.0 0.00 0.00 0.00 67 1007.3
20210614205230 87 264 0.0 0.0 0.00 0.00 0.00 66 1007.3
20210614204729 88 257 0.0 0.0 0.00 0.00 0.00 65 1007.2
20210614204229 89 257 0.0 0.0 0.00 0.00 0.00 63 1007.1
20210614203730 89 257 0.0 2.0 0.00 0.00 0.00 63 1007.2
20210614203229 89 257 0.0 2.0 0.00 0.00 0.00 61 1007.1
20210614202729 89 229 0.0 2.0 0.00 0.00 0.00 61 1007.2
20210614202229 89 184 0.0 2.0 0.00 0.00 0.00 65 1007.2
20210614201729 89 94 0.0 2.0 0.00 0.00 0.00 63 1007.2
20210614201230 89 78 0.0 0.0 0.00 0.00 0.00 65 1007.3
20210614200729 89 194 0.0 1.0 0.00 0.00 0.00 64 1007.3
20210614200230 89 194 0.0 2.0 0.00 0.00 0.00 63 1007.4
20210614195731 90 238 0.0 2.0 0.00 0.00 0.00 63 1007.5
20210614195230 89 284 0.0 0.0 0.00 0.00 0.00 64 1007.5
20210614194732 89 240 0.0 0.0 0.00 0.00 0.00 64 1007.8
20210614194231 89 240 0.0 0.0 0.00 0.00 0.00 61 1007.8
20210614193730 89 240 0.0 0.0 0.00 0.00 0.00 61 1007.8
20210614193229 89 273 0.0 0.0 0.00 0.00 0.00 61 1007.9
20210614192730 89 261 0.0 0.0 0.00 0.00 0.00 60 1007.9
20210614192229 89 261 0.0 0.0 0.00 0.00 0.00 62 1008.0
20210614191729 89 287 0.0 1.0 0.00 0.00 0.00 65 1008.0
20210614191229 88 302 0.0 1.0 0.00 0.00 0.00 65 1008.0
20210614190729 87 302 0.0 1.0 0.00 0.00 0.00 64 1008.3
20210614190230 87 298 0.0 2.0 0.00 0.00 0.00 66 1008.5
20210614185730 87 298 0.0 3.0 0.00 0.00 0.00 65 1008.5
20210614185229 88 79 0.0 3.0 0.00 0.00 0.00 65 1008.5
20210614184730 88 57 0.0 2.0 0.00 0.00 0.00 63 1008.6
20210614184229 88 265 0.0 2.0 0.00 0.00 0.00 65 1008.6
20210614183731 87 260 0.0 2.0 0.00 0.00 0.00 64 1008.7
20210614183231 88 97 0.0 2.0 0.00 0.00 0.00 64 1008.8
20210614182731 88 183 0.0 3.0 0.00 0.00 0.00 64 1008.9
20210614182229 87 217 0.0 3.0 0.00 0.00 0.00 65 1009.0
20210614181728 87 223 0.0 2.0 0.00 0.00 0.00 65 1008.9
20210614181230 87 222 0.0 2.0 0.00 0.00 0.00 62 1009.0
20210614180725 88 291 0.0 3.0 0.00 0.00 0.00 65 1009.0